[[{"header":{"parameterUnit":"m.s-1","parameterCategory":1,"la1":30.2991,"la2":30.254,"lo1":-89.0895,"lo2":-89.0444,"dy":0.0017,"dx":0.0017,"nx":28,"ny":28,"refTime":"2023-10-11T21:00:00:Z","depth":0,"parameterNumber":2,"parameterNumberName":"U-component_of_WINDS"},"data":[0,0,0,0,0,0,0,0,0,0,0,0,0,0,0,0,0,0,0,0,0,0,0,0,0,0,0,0,0,0,0,0,0,0,0,0,0,0,0,0,0,0,0,0,0,0,0,0,0,0,0,0,0,0,0,0,0,0,-1.8278,-1.8279,0,-1.8298,-1.8299,-1.8299,-1.8243,-1.8241,-1.824,-1.8238,-1.8258,-1.826,-1.8262,0,0,0,0,0,0,0,0,0,0,0,0,0,-1.8191,-1.8193,-1.8278,-1.8279,-1.8279,-1.8298,-1.8299,-1.8299,-1.8243,-1.8241,-1.8239,-1.8237,-1.8257,-1.826,-1.8263,0,0,0,0,0,0,0,0,0,0,0,0,0,-1.8222,-1.8194,-1.8278,-1.8254,-1.8251,-1.8298,-1.8299,-1.8299,-1.8244,-1.8241,-1.8239,-1.8236,-1.8257,-1.826,-1.8263,-1.8335,0,0,-1.8273,-1.8274,0,0,0,0,0,0,0,0,-1.822,-1.8225,-1.8257,-1.8255,-1.8253,-1.8266,-1.8275,-1.8311,-1.8244,-1.8247,-1.8238,-1.8235,-1.8263,-1.8265,-1.8275,-1.8336,-1.8337,-1.8273,-1.8275,-1.8276,-1.8277,0,0,0,0,0,0,0,-1.8218,-1.8224,-1.8286,-1.8257,-1.8255,-1.8241,-1.8243,-1.8282,-1.8269,-1.8246,-1.8242,-1.8245,-1.8261,-1.8272,-1.8275,-1.8337,-1.8273,-1.8276,-1.8278,-1.8279,-1.8457,-1.846,0,0,0,0,0,0,-1.822,-1.8223,-1.8286,-1.8287,-1.823,-1.8245,-1.8246,-1.8264,-1.8268,-1.8267,-1.8248,-1.8243,-1.8268,-1.8271,-1.8275,-1.8359,-1.8276,-1.8279,-1.8281,-1.8455,-1.8458,-1.8461,0,0,0,0,0,0,-1.8218,-1.8226,-1.8285,-1.8254,-1.826,-1.8249,-1.8269,-1.8266,-1.8276,-1.8269,-1.8267,-1.8261,-1.8266,-1.8271,-1.832,-1.8359,-1.8281,-1.8284,-1.8451,-1.8456,-1.8459,-1.8528,0,0,0,0,0,0,-1.8216,-1.8225,-1.8253,-1.8255,-1.8262,-1.833,-1.8272,-1.8268,-1.8282,-1.8276,-1.8281,-1.8279,-1.8264,-1.8316,-1.8324,-1.8362,-1.8286,-1.8448,-1.8453,-1.8458,-1.8523,-1.8534,-1.8545,0,0,0,0,0,-1.8213,-1.8271,-1.8254,-1.8262,-1.8296,-1.8332,-1.8336,-1.8318,-1.8286,-1.8313,-1.8308,-1.8279,-1.8354,-1.8321,-1.833,-1.837,-1.8445,-1.8452,-1.8458,-1.8518,-1.8532,-1.8544,0,0,0,0,0,0,-1.8274,-1.8271,-1.8252,-1.8314,-1.8324,-1.8323,-1.8357,-1.8333,-1.8353,-1.8346,-1.8322,-1.8323,-1.8377,-1.8378,-1.8342,-1.8439,-1.8394,-1.8402,-1.8437,-1.845,-1.8461,-1.846,-1.8289,0,0,0,0,0,-1.8295,-1.8325,-1.832,-1.8375,-1.8381,-1.8368,-1.8383,-1.8368,-1.8377,-1.8381,-1.838,-1.839,-1.8416,-1.8433,-1.8456,-1.8523,-1.8523,-1.8554,-1.8565,-1.8574,-1.8582,-1.8617,-1.863,-1.8482,-1.8482,-1.8481,0,0,-1.8338,-1.834,-1.836,-1.8387,-1.8393,-1.8424,-1.8372,-1.8407,-1.843,-1.8386,-1.8433,-1.8433,-1.8442,-1.8501,-1.8526,-1.8503,-1.8623,-1.8582,-1.859,-1.8592,-1.8624,-1.8639,-1.8651,-1.8486,-1.8485,-1.8484,0,0,-1.8432,-1.8437,-1.8483,-1.849,-1.8499,-1.849,-1.8502,-1.8504,-1.8502,-1.8549,-1.8517,-1.8543,-1.8588,-1.8596,-1.8606,-1.8703,-1.8677,-1.8712,-1.8769,-1.8803,-1.8815,-1.8825,-1.886,-1.8872,-1.8719,-1.8719,-1.8719,0,-1.8484,-1.853,-1.8509,-1.8547,-1.8559,-1.8521,-1.8567,-1.8575,-1.8592,-1.8601,-1.8575,-1.863,-1.8634,-1.8694,-1.8717,-1.8727,-1.8738,-1.8711,-1.8815,-1.8825,-1.8834,-1.8867,-1.888,-1.8723,-1.8723,-1.8722,-1.8722,0,-1.8594,-1.8626,-1.8662,-1.8679,-1.8696,-1.8738,-1.8722,-1.8742,-1.8725,-1.8719,-1.8766,-1.8769,-1.8793,-1.8805,-1.8789,-1.8863,-1.8848,-1.8819,-1.8773,-1.8853,-1.8883,-1.8896,-1.8729,-1.8728,-1.8726,-1.8725,0,0,-1.8727,-1.8732,-1.8746,-1.8753,-1.8761,-1.8785,-1.8825,-1.8848,-1.8865,-1.8878,-1.891,-1.8949,-1.8922,-1.8933,-1.8918,-1.8948,-1.9024,-1.8915,-1.8915,-1.8935,-1.9105,-1.9127,-1.9142,-1.9007,-1.901,-1.9011,-1.9104,0,-1.882,-1.8889,-1.887,-1.8938,-1.8968,-1.8932,-1.8966,-1.8975,-1.897,-1.8994,-1.8989,-1.9017,-1.8979,-1.8986,-1.9014,-1.9009,-1.9058,-1.9002,-1.9037,-1.9039,-1.9036,-1.9158,-1.9181,-1.9268,-1.9116,-1.9118,-1.9119,0,-1.8938,-1.8955,-1.9026,-1.9029,-1.9041,-1.9072,-1.9091,-1.9115,-1.9124,-1.9118,-1.9131,-1.9109,-1.9148,-1.9102,-1.9155,-1.9117,-1.913,-1.913,-1.9133,-1.9135,-1.9084,-1.9163,-1.9296,-1.9309,-1.9138,-1.9136,-1.9135,0,-1.9028,-1.9069,-1.9117,-1.9124,-1.9129,-1.9152,-1.9155,-1.9161,-1.9175,-1.9192,-1.9201,-1.9222,-1.9234,-1.9251,-1.9235,-1.9203,-1.9291,-1.9243,-1.9287,-1.9287,-1.9307,-1.9306,-1.9443,-1.9316,-1.9315,-1.9315,-1.9315,0,-1.9133,-1.9178,-1.9157,-1.9187,-1.9236,-1.9214,-1.9264,-1.9262,-1.9268,-1.9296,-1.9266,-1.9294,-1.9271,-1.9297,-1.9285,-1.933,-1.9336,-1.9332,-1.9328,-1.9335,-1.9335,-1.9343,-1.9336,-1.9319,-1.9318,-1.9317,-1.9317,0,-1.9242,-1.923,-1.928,-1.928,-1.9281,-1.9317,-1.9317,-1.9344,-1.9337,-1.9374,-1.9381,-1.937,-1.9398,-1.9384,-1.9413,-1.9405,-1.9464,-1.9452,-1.9461,-1.9458,-1.9502,-1.9498,-1.965,-1.9668,-1.9529,-1.953,-1.9531,0,-1.931,-1.9344,-1.9348,-1.9365,-1.937,-1.9397,-1.9412,-1.9392,-1.9409,-1.9421,-1.9447,-1.9472,-1.9492,-1.9538,-1.9533,-1.9555,-1.9543,-1.9594,-1.9546,-1.9551,-1.9543,-1.9542,-1.9545,-1.9604,-1.9606,-1.9607,-1.9608,0,-1.9432,-1.9425,-1.9447,-1.9468,-1.9487,-1.9502,-1.9514,-1.953,-1.951,-1.9531,-1.9559,-1.9574,-1.9604,-1.9629,-1.9648,-1.9651,-1.9627,-1.9623,-1.9635,-1.9641,-1.9645,-1.9644,-1.9487,-1.962,-1.9619,-1.9618,-1.9617,-1.9617,-1.9523,-1.9551,-1.9558,-1.9584,-1.9591,-1.9604,-1.9629,-1.9626,-1.9649,-1.9672,-1.9658,-1.9692,-1.9699,-1.9722,-1.9728,-1.9754,-1.9733,-1.975,-1.9754,-1.9758,-1.9764,-1.9641,-1.9757,-1.9757,-1.9756,-1.9756,-1.9756,0,-1.9643,-1.9646,-1.967,-1.9689,-1.9709,-1.9684,-1.9697,-1.9716,-1.9746,-1.9755,-1.9774,-1.9807,-1.9831,-1.9828,-1.985,-1.9871,-1.9861,-1.9878,-1.9876,-1.9877,-1.9781,-1.9769,-1.9886,-1.9886,-1.9886,-1.9886,-1.9886,-1.9886,-1.9708,-1.9754,-1.9747,-1.9797,-1.9799,-1.9831,-1.9841,-1.9852,-1.9859,-1.9897,-1.9917,-1.9915,-1.9919,-1.9941,-1.9963,-1.9961,-1.997,-1.9992,-1.9986,-1.9897,-1.9884,-1.9871,-1.986,-1.9994,-1.9994,-2.008,-2.0081,-2.0081]},{"header":{"parameterUnit":"m.s-1","parameterCategory":1,"la1":30.2991,"la2":30.254,"lo1":-89.0895,"lo2":-89.0444,"dy":0.0017,"dx":0.0017,"nx":28,"ny":28,"refTime":"2023-10-11T21:00:00:Z","depth":0,"parameterNumber":3,"parameterNumberName":"V-component_of_WINDS"},"data":[0,0,0,0,0,0,0,0,0,0,0,0,0,0,0,0,0,0,0,0,0,0,0,0,0,0,0,0,0,0,0,0,0,0,0,0,0,0,0,0,0,0,0,0,0,0,0,0,0,0,0,0,0,0,0,0,0,0,-2.4211,-2.4212,0,-2.4233,-2.4234,-2.4234,-2.4222,-2.4221,-2.422,-2.422,-2.424,-2.4242,-2.4243,0,0,0,0,0,0,0,0,0,0,0,0,0,-2.4157,-2.4158,-2.4211,-2.4212,-2.4212,-2.4233,-2.4234,-2.4234,-2.4222,-2.4221,-2.422,-2.422,-2.424,-2.4241,-2.4243,0,0,0,0,0,0,0,0,0,0,0,0,0,-2.418,-2.4158,-2.4211,-2.4209,-2.4209,-2.4233,-2.4234,-2.4234,-2.4222,-2.4221,-2.422,-2.4219,-2.424,-2.4241,-2.4243,-2.4271,0,0,-2.4248,-2.4249,0,0,0,0,0,0,0,0,-2.4178,-2.4182,-2.4209,-2.4209,-2.4209,-2.4224,-2.4222,-2.4246,-2.4222,-2.4217,-2.422,-2.4219,-2.4236,-2.4237,-2.4243,-2.4272,-2.4273,-2.4248,-2.4249,-2.425,-2.425,0,0,0,0,0,0,0,-2.4177,-2.4181,-2.422,-2.4209,-2.4209,-2.4205,-2.4208,-2.4226,-2.4231,-2.4217,-2.4216,-2.4219,-2.4235,-2.4242,-2.4244,-2.4273,-2.4248,-2.425,-2.4251,-2.4251,-2.4324,-2.4325,0,0,0,0,0,0,-2.4176,-2.4179,-2.4219,-2.4221,-2.4191,-2.4207,-2.421,-2.422,-2.4231,-2.4231,-2.422,-2.4218,-2.4239,-2.4242,-2.4245,-2.4277,-2.425,-2.4251,-2.4252,-2.4323,-2.4324,-2.4325,0,0,0,0,0,0,-2.4175,-2.4179,-2.4218,-2.42,-2.4205,-2.4209,-2.4221,-2.4221,-2.4227,-2.4233,-2.4233,-2.4226,-2.4239,-2.4242,-2.4264,-2.4278,-2.4252,-2.4254,-2.4322,-2.4324,-2.4325,-2.4343,0,0,0,0,0,0,-2.4173,-2.4179,-2.4191,-2.42,-2.4206,-2.4239,-2.4221,-2.4222,-2.423,-2.4229,-2.4238,-2.4239,-2.4238,-2.4262,-2.4266,-2.4279,-2.4255,-2.4321,-2.4323,-2.4325,-2.4341,-2.4345,-2.4348,0,0,0,0,0,-2.4171,-2.4195,-2.4191,-2.4196,-2.422,-2.424,-2.4242,-2.4242,-2.4232,-2.4242,-2.4246,-2.4239,-2.4276,-2.4264,-2.4269,-2.4283,-2.432,-2.4322,-2.4324,-2.434,-2.4344,-2.4348,0,0,0,0,0,0,-2.4186,-2.4196,-2.4192,-2.422,-2.4229,-2.4237,-2.4251,-2.4247,-2.4258,-2.4256,-2.4254,-2.4256,-2.4279,-2.4283,-2.427,-2.431,-2.4296,-2.4299,-2.4306,-2.4311,-2.4314,-2.4312,-2.4256,0,0,0,0,0,-2.4193,-2.4208,-2.4216,-2.4239,-2.4244,-2.4247,-2.4255,-2.4254,-2.4263,-2.4267,-2.4272,-2.428,-2.4294,-2.4302,-2.4315,-2.4342,-2.4343,-2.4354,-2.4357,-2.436,-2.4362,-2.4375,-2.438,-2.4332,-2.4332,-2.4332,0,0,-2.4206,-2.4214,-2.4224,-2.4242,-2.4249,-2.4265,-2.425,-2.4267,-2.4278,-2.4269,-2.429,-2.4294,-2.4303,-2.4328,-2.4338,-2.4332,-2.4376,-2.4363,-2.4365,-2.4366,-2.4378,-2.4382,-2.4386,-2.4334,-2.4334,-2.4333,0,0,-2.4238,-2.4246,-2.4266,-2.4273,-2.4284,-2.4285,-2.429,-2.4299,-2.4301,-2.4323,-2.4316,-2.4328,-2.4352,-2.4358,-2.4365,-2.4399,-2.4392,-2.4403,-2.442,-2.4433,-2.4436,-2.444,-2.445,-2.4454,-2.4405,-2.4405,-2.4405,0,-2.4254,-2.4277,-2.4277,-2.4294,-2.4302,-2.4294,-2.4314,-2.432,-2.4335,-2.434,-2.4332,-2.4361,-2.4367,-2.4392,-2.44,-2.4406,-2.441,-2.4401,-2.4436,-2.4439,-2.4442,-2.4452,-2.4457,-2.4406,-2.4406,-2.4406,-2.4406,0,-2.4295,-2.4311,-2.4325,-2.4339,-2.4349,-2.4367,-2.4368,-2.4378,-2.4375,-2.4377,-2.4398,-2.4405,-2.4418,-2.4424,-2.4422,-2.4449,-2.4444,-2.4436,-2.4422,-2.4448,-2.4457,-2.4461,-2.4408,-2.4408,-2.4407,-2.4407,0,0,-2.4337,-2.435,-2.4355,-2.436,-2.4371,-2.4383,-2.4401,-2.4414,-2.4422,-2.4432,-2.4445,-2.4465,-2.4458,-2.4465,-2.4463,-2.4475,-2.4499,-2.4465,-2.4466,-2.447,-2.4527,-2.4532,-2.4537,-2.4495,-2.4496,-2.4497,-2.4526,0,-2.4369,-2.4399,-2.4399,-2.4427,-2.4441,-2.4434,-2.4449,-2.4457,-2.4459,-2.4471,-2.4473,-2.4486,-2.4476,-2.448,-2.4491,-2.4494,-2.451,-2.4492,-2.4507,-2.4507,-2.4504,-2.4542,-2.4547,-2.4574,-2.453,-2.453,-2.4531,0,-2.441,-2.4421,-2.4451,-2.4458,-2.4464,-2.4478,-2.4489,-2.4501,-2.4509,-2.451,-2.4518,-2.4514,-2.453,-2.4517,-2.4538,-2.4526,-2.4532,-2.4534,-2.4535,-2.4535,-2.452,-2.4542,-2.4583,-2.4587,-2.4537,-2.4536,-2.4536,0,-2.4436,-2.4459,-2.4479,-2.4484,-2.4494,-2.4503,-2.4508,-2.4515,-2.4523,-2.4533,-2.4537,-2.4549,-2.4555,-2.4564,-2.4563,-2.4553,-2.4585,-2.4571,-2.4585,-2.4585,-2.4591,-2.459,-2.4632,-2.4597,-2.4597,-2.4597,-2.4597,0,-2.4471,-2.4489,-2.449,-2.4503,-2.4522,-2.4521,-2.454,-2.4544,-2.455,-2.4562,-2.4557,-2.4568,-2.4567,-2.4578,-2.4578,-2.4595,-2.4598,-2.4598,-2.4598,-2.4598,-2.4598,-2.4601,-2.4599,-2.4598,-2.4597,-2.4597,-2.4597,0,-2.4503,-2.4505,-2.4526,-2.4534,-2.4536,-2.455,-2.4556,-2.4567,-2.4569,-2.4584,-2.4587,-2.459,-2.4603,-2.4603,-2.4618,-2.4617,-2.4638,-2.4636,-2.4635,-2.4634,-2.4647,-2.4646,-2.4692,-2.4698,-2.466,-2.466,-2.466,0,-2.4525,-2.4538,-2.4547,-2.4555,-2.456,-2.4573,-2.4581,-2.458,-2.4588,-2.4598,-2.4607,-2.462,-2.4629,-2.465,-2.4652,-2.4663,-2.4661,-2.4676,-2.4662,-2.4662,-2.4659,-2.4658,-2.4659,-2.4679,-2.4679,-2.4679,-2.468,0,-2.4563,-2.4563,-2.4574,-2.4586,-2.4595,-2.4604,-2.4613,-2.4619,-2.4619,-2.4628,-2.4641,-2.4649,-2.4664,-2.4675,-2.4686,-2.4689,-2.4684,-2.4684,-2.4688,-2.4688,-2.4686,-2.4686,-2.4641,-2.4683,-2.4683,-2.4682,-2.4682,-2.4682,-2.4589,-2.4601,-2.4608,-2.4621,-2.4627,-2.4635,-2.4645,-2.4648,-2.4659,-2.4671,-2.467,-2.4684,-2.4691,-2.4704,-2.4709,-2.4719,-2.4714,-2.4719,-2.472,-2.4721,-2.4722,-2.4686,-2.4721,-2.4721,-2.4721,-2.4721,-2.4721,0,-2.4626,-2.463,-2.4642,-2.4653,-2.4663,-2.4658,-2.4667,-2.4675,-2.4687,-2.4695,-2.4704,-2.4718,-2.473,-2.4733,-2.4744,-2.4751,-2.4749,-2.4754,-2.4753,-2.4754,-2.4727,-2.4722,-2.4756,-2.4756,-2.4756,-2.4756,-2.4756,-2.4756,-2.4646,-2.4664,-2.4665,-2.4685,-2.469,-2.4704,-2.4709,-2.4716,-2.4721,-2.4737,-2.4747,-2.4749,-2.4754,-2.4765,-2.4775,-2.4775,-2.4779,-2.4785,-2.4784,-2.4759,-2.4756,-2.4752,-2.4748,-2.4786,-2.4786,-2.481,-2.481,-2.481]}]]